QPF
0.00 0.00 0.01 0.01 0.00 0.00 0.00 0.00 0.00 0.00 0.00 0.00 0.00 0.00 0.00 0.00 0.00 0.00 0.00 0.00 0.00 0.00 0.00 0.00 0.00 0.00 0.00 0.00 0.00 0.00 0.00 0.00 0.00 0.00 0.00 0.00 0.00 0.00 0.00 0.00 0.00 0.00 0.00 0.00 0.00 0.00 0.00 0.00 0.00
0.00 0.00 0.00 0.01 0.00 0.00 0.00 0.00 0.00 0.00 0.00 0.00 0.00 0.00 0.00 0.00 0.00 0.00 0.00 0.00 0.00 0.00 0.00 0.00 0.00 0.00 0.00 0.00 0.00 0.00 0.00 0.00 0.00 0.00 0.00 0.00 0.00 0.00 0.00 0.00 0.00 0.00 0.00 0.00 0.00 0.00 0.00 0.00 0.00
0.00 0.00 0.00 0.00 0.00 0.00 0.00 0.00 0.00 0.00 0.00 0.00 0.00 0.00 0.00 0.00 0.00 0.00 0.00 0.00 0.00 0.00 0.00 0.00 0.00 0.00 0.00 0.00 0.00 0.00 0.00 0.00 0.00 0.00 0.00 0.00 0.00 0.00 0.00 0.00 0.00 0.00 0.00 0.00 0.00 0.00 0.00 0.00 0.00
0.00 0.00 0.00 0.00 0.00 0.00 0.00 0.00 0.00 0.00 0.00 0.00 0.00 0.00 0.00 0.00 0.00 0.00 0.00 0.00 0.00 0.00 0.00 0.00 0.00 0.00 0.00 0.00 0.00 0.00 0.00 0.00 0.00 0.00 0.00 0.00 0.00 0.00 0.00 0.00 0.00 0.00 0.00 0.00 0.00 0.00 0.00 0.00 0.00
0.00 0.00 0.00 0.00 0.00 0.00 0.01 0.00 0.00 0.00 0.00 0.00 0.00 0.00 0.00 0.00 0.00 0.00 0.00 0.00 0.00 0.00 0.00 0.00 0.00 0.00 0.00 0.00 0.00 0.00 0.00 0.00 0.00 0.00 0.00 0.00 0.00 0.00 0.00 0.00 0.00 0.00 0.00 0.00 0.00 0.00 0.00 0.00 0.00
0.00 0.00 0.00 0.00 0.00 0.01 0.01 0.01 0.00 0.00 0.00 0.00 0.00 0.00 0.00 0.00 0.00 0.00 0.00 0.00 0.00 0.00 0.00 0.00 0.00 0.00 0.00 0.00 0.00 0.00 0.00 0.00 0.00 0.00 0.00 0.00 0.00 0.00 0.00 0.00 0.00 0.00 0.00 0.00 0.00 0.00 0.00 0.00 0.00
0.00 0.00 0.00 0.00 0.00 0.00 0.00 0.00 0.00 0.00 0.00 0.00 0.00 0.00 0.00 0.00 0.00 0.00 0.00 0.00 0.00 0.00 0.00 0.00 0.00 0.00 0.00 0.00 0.00 0.00 0.00 0.00 0.00 0.00 0.00 0.00 0.00 0.00 0.00 0.00 0.00 0.00 0.00 0.00 0.00 0.00 0.00 0.00 0.00
0.00 0.00 0.00 0.00 0.00 0.00 0.00 0.00 0.00 0.00 0.00 0.00 0.00 0.00 0.00 0.00 0.00 0.00 0.00 0.00 0.00 0.00 0.00 0.00 0.00 0.00 0.00 0.00 0.00 0.00 0.00 0.00 0.00 0.00 0.00 0.00 0.00 0.00 0.00 0.00 0.00 0.00 0.00 0.00 0.00 0.00 0.00 0.00 0.00
0.00 0.00 0.00 0.00 0.00 0.00 0.00 0.00 0.00 0.00 0.00 0.00 0.00 0.00 0.00 0.00 0.00 0.00 0.00 0.00 0.00 0.00 0.00 0.00 0.00 0.00 0.00 0.00 0.00 0.00 0.00 0.00 0.00 0.00 0.00 0.00 0.00 0.00 0.00 0.00 0.00 0.00 0.00 0.00 0.00 0.01 0.01 0.01 0.00
0.00 0.00 0.00 0.00 0.00 0.00 0.00 0.00 0.00 0.00 0.00 0.00 0.00 0.00 0.00 0.00 0.00 0.00 0.00 0.00 0.00 0.00 0.00 0.00 0.00 0.00 0.00 0.00 0.00 0.00 0.00 0.00 0.00 0.00 0.00 0.00 0.00 0.00 0.00 0.00 0.00 0.00 0.01 0.01 0.02 0.02 0.03 0.02 0.01
0.00 0.00 0.00 0.00 0.00 0.00 0.00 0.00 0.00 0.00 0.00 0.00 0.00 0.00 0.00 0.00 0.00 0.00 0.00 0.00 0.00 0.00 0.00 0.00 0.00 0.00 0.00 0.00 0.00 0.00 0.00 0.00 0.00 0.00 0.00 0.00 0.00 0.00 0.00 0.00 0.00 0.00 0.02 0.03 0.04 0.07 0.06 0.05 0.04
0.00 0.00 0.00 0.00 0.00 0.00 0.00 0.00 0.00 0.00 0.00 0.00 0.00 0.00 0.00 0.00 0.00 0.00 0.00 0.00 0.00 0.00 0.00 0.01 0.01 0.01 0.00 0.00 0.00 0.00 0.00 0.00 0.00 0.00 0.00 0.01 0.00 0.00 0.01 0.01 0.01 0.02 0.02 0.05 0.08 0.10 0.10 0.10 0.09
0.00 0.00 0.00 0.00 0.00 0.00 0.00 0.00 0.00 0.00 0.00 0.00 0.00 0.00 0.00 0.00 0.00 0.00 0.00 0.00 0.00 0.00 0.01 0.03 0.03 0.03 0.02 0.02 0.01 0.01 0.01 0.00 0.00 0.01 0.02 0.03 0.02 0.02 0.03 0.03 0.03 0.04 0.07 0.11 0.17 0.18 0.20 0.19 0.15
0.00 0.00 0.00 0.00 0.00 0.00 0.00 0.00 0.00 0.00 0.00 0.00 0.00 0.00 0.00 0.00 0.00 0.00 0.00 0.00 0.00 0.00 0.02 0.05 0.07 0.07 0.05 0.04 0.04 0.04 0.03 0.02 0.02 0.04 0.08 0.13 0.10 0.11 0.14 0.15 0.16 0.17 0.21 0.27 0.31 0.30 0.31 0.26 0.21
0.00 0.00 0.00 0.00 0.00 0.00 0.00 0.00 0.00 0.00 0.00 0.00 0.00 0.00 0.00 0.00 0.00 0.00 0.00 0.00 0.00 0.01 0.04 0.09 0.11 0.11 0.11 0.10 0.09 0.09 0.09 0.09 0.09 0.14 0.26 0.29 0.25 0.24 0.30 0.27 0.28 0.32 0.40 0.41 0.40 0.36 0.32 0.22 0.18
0.00 0.00 0.00 0.00 0.00 0.00 0.00 0.00 0.00 0.00 0.00 0.00 0.00 0.00 0.00 0.00 0.00 0.00 0.01 0.00 0.01 0.02 0.06 0.11 0.12 0.12 0.13 0.14 0.15 0.17 0.17 0.15 0.15 0.20 0.24 0.29 0.29 0.27 0.31 0.24 0.22 0.33 0.44 0.42 0.36 0.29 0.25 0.18 0.16
0.00 0.00 0.00 0.00 0.00 0.00 0.00 0.00 0.00 0.00 0.00 0.00 0.00 0.00 0.01 0.01 0.01 0.01 0.01 0.01 0.01 0.03 0.05 0.08 0.10 0.11 0.12 0.13 0.15 0.19 0.19 0.17 0.17 0.17 0.15 0.18 0.23 0.22 0.27 0.21 0.17 0.25 0.34 0.33 0.31 0.28 0.28 0.23 0.18
0.00 0.00 0.00 0.00 0.00 0.00 0.00 0.00 0.00 0.00 0.00 0.00 0.00 0.01 0.01 0.01 0.01 0.01 0.01 0.01 0.01 0.02 0.03 0.06 0.07 0.08 0.08 0.08 0.08 0.09 0.09 0.08 0.10 0.10 0.07 0.07 0.09 0.11 0.16 0.12 0.11 0.22 0.28 0.25 0.29 0.30 0.30 0.23 0.20
0.00 0.00 0.00 0.00 0.00 0.00 0.00 0.00 0.00 0.00 0.01 0.01 0.01 0.01 0.01 0.01 0.01 0.01 0.01 0.00 0.00 0.00 0.01 0.02 0.02 0.02 0.02 0.02 0.02 0.02 0.01 0.01 0.02 0.02 0.02 0.03 0.04 0.05 0.06 0.04 0.05 0.11 0.15 0.16 0.21 0.23 0.25 0.17 0.25
0.00 0.00 0.00 0.00 0.00 0.00 0.00 0.00 0.00 0.00 0.00 0.00 0.01 0.01 0.01 0.01 0.01 0.01 0.00 0.00 0.00 0.00 0.00 0.00 0.00 0.00 0.00 0.00 0.00 0.00 0.00 0.00 0.00 0.00 0.00 0.01 0.01 0.01 0.01 0.01 0.02 0.05 0.07 0.06 0.08 0.13 0.14 0.10 0.20
0.00 0.00 0.00 0.00 0.00 0.00 0.00 0.00 0.00 0.00 0.00 0.00 0.00 0.01 0.02 0.02 0.01 0.01 0.00 0.00 0.00 0.00 0.00 0.00 0.00 0.00 0.00 0.00 0.00 0.00 0.00 0.00 0.00 0.00 0.00 0.00 0.00 0.00 0.00 0.00 0.00 0.01 0.02 0.02 0.03 0.06 0.08 0.07 0.09
0.00 0.00 0.00 0.00 0.00 0.00 0.00 0.00 0.00 0.00 0.00 0.00 0.01 0.01 0.02 0.01 0.01 0.00 0.00 0.00 0.00 0.00 0.00 0.00 0.00 0.00 0.00 0.00 0.00 0.00 0.00 0.00 0.00 0.00 0.00 0.00 0.00 0.00 0.00 0.00 0.00 0.00 0.00 0.00 0.01 0.02 0.03 0.05 0.04
0.00 0.00 0.00 0.00 0.00 0.00 0.00 0.00 0.00 0.00 0.00 0.01 0.01 0.01 0.01 0.00 0.00 0.01 0.00 0.00 0.00 0.00 0.00 0.00 0.00 0.00 0.00 0.00 0.00 0.00 0.00 0.00 0.00 0.00 0.00 0.00 0.00 0.00 0.00 0.00 0.00 0.00 0.00 0.00 0.00 0.01 0.02 0.03 0.03
0.00 0.00 0.00 0.00 0.00 0.00 0.00 0.00 0.00 0.00 0.00 0.00 0.00 0.00 0.01 0.00 0.00 0.00 0.00 0.00 0.00 0.00 0.00 0.00 0.00 0.00 0.00 0.00 0.00 0.00 0.00 0.00 0.00 0.00 0.00 0.00 0.00 0.00 0.00 0.00 0.00 0.00 0.00 0.00 0.00 0.01 0.01 0.02 0.02
0.00 0.00 0.00 0.00 0.00 0.00 0.00 0.00 0.00 0.00 0.00 0.00 0.00 0.00 0.00 0.00 0.01 0.01 0.00 0.00 0.00 0.00 0.00 0.00 0.00 0.00 0.00 0.00 0.00 0.00 0.00 0.00 0.00 0.00 0.00 0.00 0.00 0.00 0.00 0.00 0.00 0.00 0.00 0.00 0.01 0.01 0.01 0.02 0.03
0.00 0.00 0.00 0.00 0.00 0.00 0.00 0.00 0.00 0.00 0.00 0.00 0.00 0.00 0.00 0.00 0.00 0.00 0.00 0.00 0.00 0.00 0.00 0.00 0.00 0.00 0.00 0.00 0.00 0.00 0.00 0.00 0.00 0.00 0.00 0.00 0.00 0.00 0.00 0.00 0.00 0.00 0.00 0.01 0.01 0.01 0.01 0.02 0.03
0.00 0.00 0.00 0.00 0.00 0.00 0.00 0.00 0.00 0.00 0.00 0.00 0.00 0.00 0.00 0.00 0.00 0.00 0.00 0.00 0.00 0.00 0.00 0.00 0.00 0.00 0.00 0.00 0.00 0.00 0.00 0.00 0.00 0.00 0.00 0.00 0.00 0.00 0.00 0.00 0.00 0.00 0.00 0.01 0.01 0.02 0.03 0.03 0.03
0.00 0.00 0.00 0.00 0.00 0.00 0.00 0.00 0.00 0.00 0.00 0.00 0.00 0.00 0.00 0.00 0.00 0.00 0.00 0.00 0.00 0.00 0.00 0.00 0.00 0.00 0.00 0.00 0.00 0.00 0.00 0.00 0.00 0.00 0.00 0.00 0.00 0.00 0.00 0.00 0.00 0.01 0.01 0.01 0.02 0.03 0.05 0.06 0.06
0.00 0.00 0.00 0.00 0.00 0.00 0.00 0.00 0.00 0.00 0.00 0.00 0.00 0.00 0.00 0.00 0.00 0.00 0.00 0.00 0.00 0.00 0.00 0.00 0.00 0.00 0.00 0.00 0.00 0.00 0.00 0.00 0.00 0.00 0.00 0.00 0.00 0.00 0.00 0.00 0.00 0.01 0.02 0.03 0.04 0.06 0.10 0.14 0.16
0.00 0.00 0.00 0.00 0.00 0.00 0.00 0.00 0.00 0.00 0.00 0.00 0.00 0.00 0.00 0.00 0.00 0.00 0.00 0.00 0.00 0.00 0.00 0.00 0.00 0.00 0.00 0.00 0.00 0.00 0.00 0.00 0.00 0.00 0.00 0.00 0.00 0.00 0.00 0.00 0.01 0.02 0.04 0.06 0.09 0.14 0.24 0.35 0.35
MSLP
1008.96 1010.00 1011.15 1012.22 1013.02 1013.46 1013.48 1013.14 1012.57 1011.94 1011.40 1011.07 1010.97 1011.09 1011.33 1011.57 1011.71 1011.68 1011.49 1011.20 1010.90 1010.70 1010.68 1010.87 1011.26 1011.78 1012.32 1012.81 1013.18 1013.40 1013.50 1013.53 1013.55 1013.63 1013.80 1014.05 1014.35 1014.67 1014.95 1015.15 1015.28 1015.33 1015.34 1015.35 1015.37 1015.42 1015.51 1015.61 1015.70
1009.34 1010.52 1011.74 1012.79 1013.50 1013.77 1013.58 1013.02 1012.23 1011.41 1010.72 1010.27 1010.12 1010.20 1010.45 1010.72 1010.92 1010.98 1010.89 1010.72 1010.54 1010.47 1010.55 1010.84 1011.29 1011.85 1012.41 1012.91 1013.28 1013.51 1013.63 1013.68 1013.74 1013.85 1014.03 1014.28 1014.56 1014.84 1015.07 1015.23 1015.32 1015.35 1015.36 1015.37 1015.41 1015.49 1015.60 1015.72 1015.83
1009.81 1011.09 1012.32 1013.30 1013.88 1013.97 1013.59 1012.84 1011.89 1010.94 1010.16 1009.67 1009.49 1009.58 1009.84 1010.15 1010.40 1010.51 1010.51 1010.42 1010.34 1010.35 1010.52 1010.86 1011.34 1011.91 1012.47 1012.96 1013.33 1013.56 1013.70 1013.78 1013.88 1014.01 1014.21 1014.46 1014.72 1014.96 1015.14 1015.24 1015.29 1015.29 1015.29 1015.32 1015.39 1015.50 1015.64 1015.79 1015.91
1010.37 1011.67 1012.85 1013.71 1014.13 1014.05 1013.50 1012.61 1011.57 1010.58 1009.79 1009.31 1009.15 1009.27 1009.56 1009.89 1010.17 1010.32 1010.36 1010.33 1010.31 1010.37 1010.58 1010.94 1011.43 1011.98 1012.51 1012.97 1013.31 1013.54 1013.69 1013.81 1013.94 1014.11 1014.33 1014.58 1014.82 1015.02 1015.15 1015.21 1015.21 1015.19 1015.19 1015.23 1015.33 1015.47 1015.64 1015.81 1015.95
1010.98 1012.23 1013.29 1014.00 1014.24 1013.99 1013.32 1012.35 1011.29 1010.31 1009.58 1009.16 1009.08 1009.25 1009.57 1009.92 1010.20 1010.37 1010.42 1010.42 1010.43 1010.52 1010.74 1011.09 1011.55 1012.06 1012.54 1012.94 1013.25 1013.47 1013.62 1013.76 1013.92 1014.13 1014.37 1014.63 1014.86 1015.03 1015.13 1015.15 1015.12 1015.08 1015.08 1015.13 1015.25 1015.42 1015.62 1015.80 1015.95
1011.58 1012.71 1013.61 1014.13 1014.19 1013.79 1013.02 1012.03 1011.00 1010.11 1009.48 1009.17 1009.17 1009.41 1009.76 1010.12 1010.41 1010.57 1010.63 1010.64 1010.66 1010.76 1010.97 1011.30 1011.71 1012.16 1012.57 1012.91 1013.16 1013.35 1013.50 1013.65 1013.84 1014.07 1014.34 1014.61 1014.84 1015.00 1015.08 1015.07 1015.03 1014.98 1014.97 1015.03 1015.16 1015.35 1015.55 1015.74 1015.89
1012.10 1013.07 1013.76 1014.07 1013.95 1013.43 1012.60 1011.63 1010.67 1009.90 1009.40 1009.22 1009.33 1009.63 1010.02 1010.39 1010.67 1010.83 1010.88 1010.90 1010.92 1011.03 1011.23 1011.53 1011.90 1012.28 1012.62 1012.89 1013.08 1013.22 1013.35 1013.50 1013.70 1013.96 1014.25 1014.53 1014.77 1014.93 1015.00 1014.99 1014.93 1014.88 1014.87 1014.93 1015.05 1015.23 1015.43 1015.60 1015.73
1012.49 1013.26 1013.73 1013.82 1013.53 1012.90 1012.04 1011.11 1010.26 1009.62 1009.27 1009.22 1009.42 1009.78 1010.20 1010.58 1010.86 1011.02 1011.08 1011.11 1011.16 1011.27 1011.48 1011.76 1012.09 1012.41 1012.68 1012.88 1013.02 1013.11 1013.21 1013.35 1013.55 1013.81 1014.11 1014.40 1014.65 1014.81 1014.89 1014.88 1014.82 1014.76 1014.74 1014.79 1014.90 1015.06 1015.23 1015.38 1015.48
1012.71 1013.27 1013.51 1013.41 1012.96 1012.25 1011.38 1010.51 1009.76 1009.25 1009.03 1009.09 1009.37 1009.79 1010.23 1010.62 1010.91 1011.08 1011.17 1011.22 1011.30 1011.44 1011.66 1011.94 1012.24 1012.52 1012.75 1012.89 1012.98 1013.03 1013.09 1013.20 1013.39 1013.64 1013.94 1014.24 1014.49 1014.65 1014.73 1014.72 1014.67 1014.60 1014.57 1014.59 1014.67 1014.79 1014.93 1015.05 1015.13
1012.78 1013.13 1013.16 1012.88 1012.31 1011.54 1010.68 1009.87 1009.22 1008.82 1008.71 1008.85 1009.19 1009.64 1010.10 1010.50 1010.80 1010.99 1011.11 1011.21 1011.33 1011.51 1011.75 1012.04 1012.34 1012.60 1012.79 1012.90 1012.95 1012.96 1012.99 1013.08 1013.24 1013.47 1013.75 1014.03 1014.28 1014.44 1014.52 1014.52 1014.46 1014.39 1014.33 1014.32 1014.36 1014.44 1014.54 1014.62 1014.68
1012.75 1012.90 1012.76 1012.33 1011.67 1010.86 1010.03 1009.28 1008.71 1008.40 1008.36 1008.56 1008.94 1009.40 1009.86 1010.27 1010.57 1010.79 1010.94 1011.08 1011.25 1011.46 1011.74 1012.04 1012.35 1012.60 1012.78 1012.88 1012.91 1012.91 1012.91 1012.97 1013.09 1013.29 1013.54 1013.79 1014.02 1014.17 1014.25 1014.24 1014.18 1014.09 1014.02 1013.97 1013.97 1014.01 1014.06 1014.12 1014.16
1012.68 1012.68 1012.39 1011.86 1011.14 1010.33 1009.53 1008.84 1008.34 1008.09 1008.10 1008.32 1008.70 1009.15 1009.60 1010.00 1010.31 1010.54 1010.72 1010.89 1011.08 1011.32 1011.61 1011.93 1012.25 1012.51 1012.70 1012.81 1012.84 1012.83 1012.82 1012.85 1012.94 1013.09 1013.29 1013.51 1013.70 1013.84 1013.91 1013.90 1013.83 1013.73 1013.63 1013.55 1013.51 1013.50 1013.52 1013.55 1013.59
1012.66 1012.53 1012.15 1011.56 1010.82 1010.04 1009.28 1008.65 1008.21 1008.00 1008.02 1008.24 1008.59 1009.02 1009.44 1009.82 1010.11 1010.34 1010.52 1010.69 1010.88 1011.12 1011.41 1011.73 1012.04 1012.32 1012.53 1012.66 1012.72 1012.72 1012.71 1012.71 1012.76 1012.87 1013.01 1013.18 1013.33 1013.44 1013.49 1013.47 1013.40 1013.29 1013.17 1013.07 1012.99 1012.95 1012.95 1012.97 1013.00
1012.74 1012.53 1012.09 1011.49 1010.78 1010.04 1009.35 1008.78 1008.38 1008.19 1008.20 1008.39 1008.70 1009.08 1009.46 1009.79 1010.06 1010.25 1010.40 1010.54 1010.70 1010.90 1011.16 1011.45 1011.76 1012.05 1012.29 1012.45 1012.54 1012.57 1012.56 1012.55 1012.57 1012.62 1012.70 1012.81 1012.91 1012.99 1013.02 1012.99 1012.91 1012.80 1012.67 1012.54 1012.44 1012.38 1012.36 1012.37 1012.42
1012.94 1012.68 1012.23 1011.66 1011.01 1010.35 1009.74 1009.23 1008.86 1008.67 1008.66 1008.79 1009.04 1009.35 1009.67 1009.95 1010.17 1010.31 1010.41 1010.49 1010.58 1010.71 1010.91 1011.16 1011.45 1011.74 1012.00 1012.20 1012.33 1012.40 1012.41 1012.38 1012.36 1012.35 1012.37 1012.41 1012.45 1012.49 1012.50 1012.46 1012.38 1012.26 1012.13 1012.00 1011.88 1011.81 1011.78 1011.79 1011.85
1013.22 1012.95 1012.54 1012.04 1011.48 1010.92 1010.39 1009.94 1009.59 1009.38 1009.32 1009.39 1009.57 1009.80 1010.05 1010.27 1010.42 1010.51 1010.53 1010.53 1010.54 1010.59 1010.70 1010.89 1011.14 1011.43 1011.71 1011.95 1012.13 1012.23 1012.26 1012.23 1012.17 1012.10 1012.05 1012.01 1012.00 1011.98 1011.96 1011.91 1011.83 1011.72 1011.59 1011.45 1011.34 1011.25 1011.22 1011.24 1011.30
1013.52 1013.28 1012.95 1012.55 1012.12 1011.67 1011.22 1010.82 1010.48 1010.23 1010.10 1010.09 1010.17 1010.32 1010.50 1010.65 1010.75 1010.77 1010.73 1010.65 1010.57 1010.52 1010.56 1010.68 1010.89 1011.17 1011.47 1011.75 1011.97 1012.10 1012.15 1012.11 1012.01 1011.89 1011.76 1011.65 1011.57 1011.50 1011.45 1011.38 1011.30 1011.19 1011.06 1010.93 1010.81 1010.72 1010.69 1010.71 1010.78
1013.77 1013.60 1013.39 1013.13 1012.84 1012.51 1012.14 1011.77 1011.41 1011.10 1010.88 1010.77 1010.75 1010.81 1010.90 1011.00 1011.05 1011.02 1010.93 1010.79 1010.63 1010.52 1010.48 1010.54 1010.72 1010.99 1011.30 1011.61 1011.87 1012.04 1012.10 1012.05 1011.92 1011.74 1011.54 1011.36 1011.21 1011.09 1011.00 1010.91 1010.81 1010.70 1010.57 1010.44 1010.31 1010.22 1010.18 1010.20 1010.27
1013.92 1013.86 1013.80 1013.71 1013.57 1013.35 1013.06 1012.70 1012.30 1011.91 1011.57 1011.33 1011.20 1011.16 1011.18 1011.23 1011.24 1011.19 1011.08 1010.90 1010.70 1010.54 1010.45 1010.48 1010.63 1010.89 1011.21 1011.55 1011.84 1012.03 1012.11 1012.06 1011.90 1011.67 1011.42 1011.17 1010.95 1010.77 1010.63 1010.52 1010.40 1010.27 1010.13 1009.98 1009.85 1009.74 1009.69 1009.70 1009.76
1013.95 1014.05 1014.17 1014.26 1014.27 1014.17 1013.93 1013.56 1013.09 1012.59 1012.12 1011.74 1011.48 1011.33 1011.29 1011.29 1011.29 1011.24 1011.13 1010.95 1010.74 1010.56 1010.45 1010.45 1010.59 1010.85 1011.18 1011.54 1011.85 1012.07 1012.16 1012.11 1011.94 1011.68 1011.38 1011.07 1010.80 1010.57 1010.38 1010.22 1010.07 1009.91 1009.74 1009.56 1009.40 1009.27 1009.20 1009.19 1009.24
1013.90 1014.19 1014.50 1014.78 1014.95 1014.95 1014.75 1014.35 1013.80 1013.17 1012.55 1012.01 1011.61 1011.36 1011.24 1011.21 1011.20 1011.17 1011.08 1010.93 1010.74 1010.57 1010.45 1010.45 1010.58 1010.83 1011.17 1011.53 1011.86 1012.10 1012.21 1012.17 1012.00 1011.73 1011.40 1011.07 1010.75 1010.47 1010.23 1010.01 1009.81 1009.60 1009.38 1009.16 1008.95 1008.78 1008.67 1008.64 1008.67
1013.85 1014.33 1014.84 1015.31 1015.63 1015.72 1015.55 1015.11 1014.46 1013.70 1012.92 1012.23 1011.69 1011.32 1011.13 1011.06 1011.05 1011.03 1010.98 1010.86 1010.71 1010.55 1010.45 1010.45 1010.57 1010.81 1011.14 1011.50 1011.84 1012.09 1012.21 1012.20 1012.04 1011.78 1011.45 1011.10 1010.76 1010.44 1010.15 1009.87 1009.60 1009.31 1009.02 1008.73 1008.46 1008.23 1008.08 1008.01 1008.02
1013.87 1014.53 1015.24 1015.88 1016.33 1016.50 1016.34 1015.87 1015.14 1014.25 1013.34 1012.50 1011.83 1011.36 1011.08 1010.96 1010.94 1010.93 1010.90 1010.82 1010.69 1010.56 1010.46 1010.44 1010.54 1010.76 1011.06 1011.40 1011.73 1011.99 1012.13 1012.14 1012.01 1011.78 1011.48 1011.13 1010.78 1010.43 1010.09 1009.74 1009.39 1009.02 1008.64 1008.26 1007.90 1007.61 1007.39 1007.28 1007.26
1014.02 1014.84 1015.71 1016.49 1017.05 1017.29 1017.16 1016.66 1015.88 1014.90 1013.88 1012.93 1012.14 1011.57 1011.22 1011.05 1010.99 1010.97 1010.94 1010.86 1010.74 1010.61 1010.50 1010.45 1010.51 1010.68 1010.94 1011.24 1011.54 1011.79 1011.94 1011.98 1011.89 1011.70 1011.43 1011.11 1010.76 1010.38 1010.00 1009.58 1009.14 1008.68 1008.19 1007.72 1007.27 1006.90 1006.62 1006.45 1006.40
1014.31 1015.25 1016.23 1017.12 1017.76 1018.06 1017.96 1017.48 1016.67 1015.66 1014.58 1013.55 1012.70 1012.05 1011.63 1011.39 1011.28 1011.23 1011.17 1011.07 1010.92 1010.76 1010.61 1010.52 1010.51 1010.61 1010.80 1011.04 1011.29 1011.51 1011.66 1011.71 1011.66 1011.51 1011.28 1010.99 1010.65 1010.27 1009.84 1009.37 1008.84 1008.28 1007.70 1007.12 1006.58 1006.13 1005.79 1005.57 1005.50
1014.72 1015.72 1016.77 1017.71 1018.41 1018.76 1018.70 1018.26 1017.49 1016.49 1015.41 1014.38 1013.49 1012.80 1012.32 1012.02 1011.84 1011.72 1011.61 1011.45 1011.26 1011.04 1010.83 1010.66 1010.58 1010.59 1010.68 1010.83 1011.01 1011.18 1011.30 1011.35 1011.32 1011.21 1011.02 1010.77 1010.45 1010.06 1009.61 1009.08 1008.49 1007.84 1007.17 1006.50 1005.88 1005.36 1004.96 1004.71 1004.61
1015.16 1016.17 1017.23 1018.18 1018.91 1019.30 1019.31 1018.93 1018.24 1017.32 1016.31 1015.33 1014.46 1013.76 1013.24 1012.88 1012.63 1012.44 1012.24 1012.01 1011.75 1011.46 1011.17 1010.92 1010.74 1010.64 1010.62 1010.67 1010.75 1010.85 1010.92 1010.95 1010.92 1010.82 1010.67 1010.44 1010.15 1009.77 1009.30 1008.75 1008.11 1007.40 1006.67 1005.94 1005.26 1004.69 1004.25 1003.97 1003.85
1015.58 1016.54 1017.55 1018.48 1019.20 1019.62 1019.69 1019.42 1018.85 1018.06 1017.18 1016.29 1015.49 1014.81 1014.28 1013.88 1013.56 1013.29 1013.01 1012.70 1012.35 1011.98 1011.62 1011.28 1011.00 1010.79 1010.65 1010.58 1010.55 1010.55 1010.54 1010.52 1010.47 1010.38 1010.24 1010.04 1009.77 1009.42 1008.97 1008.41 1007.76 1007.03 1006.26 1005.51 1004.80 1004.21 1003.75 1003.46 1003.33
1015.89 1016.76 1017.69 1018.55 1019.24 1019.68 1019.82 1019.66 1019.24 1018.62 1017.89 1017.14 1016.44 1015.82 1015.30 1014.87 1014.50 1014.15 1013.80 1013.41 1013.00 1012.56 1012.12 1011.71 1011.34 1011.02 1010.77 1010.57 1010.42 1010.30 1010.20 1010.10 1010.01 1009.90 1009.77 1009.60 1009.36 1009.05 1008.64 1008.11 1007.49 1006.78 1006.04 1005.29 1004.60 1004.01 1003.56 1003.28 1003.14
1016.09 1016.86 1017.67 1018.44 1019.08 1019.52 1019.72 1019.67 1019.39 1018.94 1018.39 1017.79 1017.20 1016.66 1016.17 1015.73 1015.32 1014.92 1014.50 1014.06 1013.59 1013.10 1012.61 1012.14 1011.70 1011.29 1010.93 1010.61 1010.33 1010.09 1009.88 1009.70 1009.55 1009.41 1009.28 1009.14 1008.95 1008.69 1008.35 1007.90 1007.35 1006.71 1006.03 1005.34 1004.69 1004.14 1003.72 1003.44 1003.32
Thickness
5842 5841 5838 5828 5811 5794 5792 5805 5817 5821 5827 5838 5841 5835 5826 5819 5814 5811 5830 5838 5836 5831 5826 5821 5817 5813 5808 5805 5802 5800 5797 5794 5792 5790 5788 5786 5784 5782 5780 5778 5776 5774 5773 5771 5770 5768 5766 5764 5762
5843 5841 5832 5820 5799 5780 5792 5813 5817 5826 5835 5841 5841 5836 5828 5824 5830 5829 5832 5835 5835 5831 5826 5821 5816 5812 5808 5804 5802 5799 5796 5794 5791 5789 5787 5785 5783 5781 5779 5777 5775 5773 5772 5770 5769 5767 5765 5763 5761
5844 5841 5824 5810 5796 5787 5801 5819 5825 5836 5844 5842 5836 5836 5831 5828 5832 5833 5837 5837 5834 5830 5825 5821 5816 5812 5808 5804 5802 5799 5796 5794 5791 5789 5786 5784 5782 5780 5778 5776 5774 5772 5771 5769 5768 5766 5765 5763 5760
5841 5830 5820 5804 5798 5806 5814 5826 5834 5835 5843 5846 5839 5830 5834 5842 5841 5841 5842 5838 5832 5828 5824 5820 5815 5811 5807 5804 5801 5798 5795 5793 5790 5788 5785 5783 5781 5779 5777 5775 5773 5771 5770 5768 5767 5765 5764 5762 5760
5836 5820 5803 5791 5798 5814 5827 5836 5839 5835 5837 5841 5839 5828 5828 5841 5846 5844 5841 5837 5832 5827 5823 5818 5814 5810 5806 5803 5800 5797 5795 5792 5789 5787 5784 5781 5779 5777 5775 5773 5771 5770 5768 5767 5765 5764 5762 5761 5759
5819 5808 5785 5782 5797 5819 5834 5843 5842 5837 5836 5840 5836 5828 5828 5839 5841 5841 5840 5836 5832 5826 5821 5817 5813 5809 5805 5802 5799 5797 5794 5791 5789 5786 5783 5780 5778 5776 5774 5772 5770 5768 5767 5765 5764 5762 5761 5759 5757
5808 5795 5786 5789 5794 5810 5832 5844 5841 5837 5834 5838 5840 5825 5827 5835 5839 5840 5837 5833 5828 5823 5819 5815 5812 5808 5805 5801 5798 5796 5793 5791 5788 5785 5782 5780 5777 5775 5773 5771 5770 5768 5766 5764 5763 5761 5760 5758 5756
5813 5795 5789 5786 5794 5807 5833 5841 5847 5843 5838 5850 5845 5827 5825 5836 5839 5835 5831 5826 5822 5819 5816 5813 5810 5807 5804 5801 5798 5795 5792 5790 5787 5785 5782 5779 5777 5775 5773 5771 5769 5768 5766 5764 5762 5760 5759 5757 5756
5814 5784 5778 5791 5798 5811 5831 5833 5843 5853 5846 5846 5848 5844 5845 5844 5837 5829 5823 5819 5816 5814 5812 5810 5807 5804 5801 5798 5796 5794 5791 5789 5786 5784 5781 5779 5776 5774 5772 5770 5769 5767 5765 5763 5761 5760 5758 5757 5755
5798 5776 5790 5808 5815 5819 5826 5829 5835 5838 5834 5835 5839 5844 5847 5840 5832 5825 5820 5815 5812 5810 5809 5807 5804 5800 5797 5795 5793 5791 5789 5787 5785 5782 5780 5777 5775 5772 5770 5768 5766 5765 5764 5762 5761 5759 5757 5756 5754
5800 5789 5802 5815 5823 5825 5824 5829 5838 5830 5824 5833 5836 5836 5838 5833 5827 5823 5819 5816 5813 5810 5806 5804 5801 5797 5793 5791 5789 5787 5785 5783 5781 5779 5777 5774 5771 5769 5767 5765 5763 5762 5761 5760 5759 5758 5756 5755 5753
5799 5803 5810 5817 5826 5824 5825 5829 5830 5830 5834 5849 5848 5843 5837 5829 5826 5823 5818 5814 5810 5806 5803 5800 5797 5793 5790 5787 5784 5782 5779 5777 5776 5774 5772 5769 5767 5765 5763 5761 5760 5758 5756 5756 5755 5754 5753 5752 5752
5797 5802 5813 5820 5821 5823 5825 5824 5827 5830 5840 5846 5843 5836 5831 5827 5824 5821 5817 5812 5807 5802 5799 5795 5792 5789 5785 5781 5778 5775 5773 5772 5770 5767 5765 5763 5762 5760 5758 5757 5755 5754 5752 5751 5750 5749 5749 5748 5748
5797 5802 5806 5811 5815 5821 5819 5820 5821 5826 5835 5835 5831 5826 5824 5821 5818 5814 5810 5806 5802 5798 5794 5790 5786 5783 5779 5775 5772 5769 5766 5765 5763 5762 5760 5758 5756 5755 5753 5752 5751 5750 5749 5748 5747 5746 5745 5744 5744
5794 5791 5796 5803 5807 5813 5816 5806 5811 5823 5827 5822 5819 5817 5815 5813 5812 5808 5806 5802 5798 5794 5790 5785 5782 5777 5773 5769 5766 5764 5762 5760 5758 5757 5755 5753 5751 5750 5750 5748 5749 5749 5747 5746 5744 5743 5742 5742 5742
5783 5774 5768 5786 5796 5805 5801 5785 5803 5815 5815 5808 5808 5807 5804 5803 5802 5802 5800 5797 5793 5789 5784 5780 5778 5772 5768 5765 5762 5760 5758 5756 5754 5753 5751 5749 5747 5746 5745 5745 5746 5747 5745 5745 5743 5742 5740 5739 5738
5754 5749 5755 5769 5788 5793 5788 5779 5793 5805 5804 5797 5797 5796 5793 5791 5791 5793 5793 5791 5787 5783 5779 5775 5772 5768 5765 5762 5758 5755 5753 5751 5749 5747 5746 5745 5743 5742 5741 5741 5743 5743 5742 5742 5740 5739 5738 5736 5736
5743 5745 5749 5755 5774 5777 5772 5772 5783 5792 5792 5788 5787 5786 5784 5782 5783 5785 5786 5784 5782 5779 5775 5771 5767 5764 5760 5756 5751 5748 5745 5744 5742 5741 5739 5738 5736 5735 5735 5735 5736 5737 5737 5737 5736 5735 5735 5734 5734
5748 5744 5743 5754 5769 5764 5760 5762 5770 5778 5780 5777 5776 5775 5775 5775 5778 5779 5778 5777 5774 5771 5768 5764 5761 5757 5753 5747 5742 5737 5735 5734 5733 5733 5731 5730 5729 5728 5728 5728 5729 5729 5729 5731 5731 5730 5729 5729 5729
5743 5739 5741 5750 5761 5757 5752 5752 5759 5766 5767 5770 5770 5767 5766 5766 5767 5769 5769 5768 5767 5764 5761 5758 5755 5751 5746 5741 5737 5733 5729 5727 5725 5723 5722 5721 5720 5720 5720 5720 5721 5722 5722 5724 5724 5723 5723 5724 5723
5741 5738 5740 5742 5747 5747 5746 5736 5745 5754 5759 5763 5764 5762 5761 5761 5760 5761 5761 5761 5760 5757 5755 5753 5748 5744 5740 5736 5731 5726 5722 5718 5715 5713 5712 5711 5711 5711 5711 5712 5713 5714 5715 5716 5718 5718 5717 5717 5718
5733 5747 5745 5740 5728 5718 5727 5707 5730 5738 5743 5749 5752 5754 5755 5757 5757 5756 5756 5755 5755 5754 5751 5747 5742 5738 5734 5730 5725 5719 5713 5708 5707 5704 5703 5702 5701 5701 5702 5703 5704 5706 5708 5709 5712 5714 5714 5713 5713
5743 5747 5738 5729 5721 5709 5711 5701 5711 5729 5734 5740 5745 5749 5751 5753 5753 5752 5752 5752 5752 5749 5745 5740 5736 5732 5729 5725 5720 5714 5709 5705 5702 5699 5696 5694 5693 5692 5692 5693 5695 5696 5699 5701 5704 5707 5708 5709 5709
5747 5733 5719 5706 5697 5689 5701 5696 5698 5715 5729 5736 5742 5746 5748 5749 5749 5748 5749 5748 5745 5743 5739 5734 5731 5728 5725 5721 5716 5711 5706 5702 5697 5694 5690 5688 5686 5684 5684 5684 5685 5687 5690 5693 5696 5700 5702 5704 5705
5733 5708 5682 5679 5671 5677 5695 5692 5696 5724 5732 5734 5738 5741 5743 5742 5741 5740 5739 5738 5737 5735 5733 5729 5726 5723 5720 5716 5711 5707 5703 5698 5693 5689 5685 5682 5679 5678 5677 5676 5677 5679 5681 5685 5688 5692 5695 5698 5699
5727 5709 5681 5670 5665 5673 5688 5689 5707 5725 5730 5732 5731 5730 5730 5728 5727 5727 5727 5727 5728 5728 5726 5723 5720 5717 5713 5709 5705 5701 5697 5692 5688 5684 5680 5677 5674 5672 5671 5670 5670 5672 5674 5677 5681 5684 5688 5691 5693
5719 5707 5704 5681 5676 5667 5676 5692 5707 5716 5716 5716 5715 5713 5711 5711 5713 5714 5715 5716 5716 5716 5715 5712 5710 5707 5704 5701 5698 5694 5691 5687 5683 5680 5676 5672 5669 5666 5664 5663 5664 5665 5667 5670 5673 5677 5680 5683 5685
5727 5707 5688 5676 5664 5659 5672 5675 5670 5681 5685 5691 5693 5693 5694 5696 5698 5700 5700 5701 5701 5701 5701 5700 5697 5694 5692 5690 5688 5686 5684 5681 5677 5673 5670 5667 5663 5660 5658 5658 5658 5659 5661 5664 5666 5669 5673 5675 5677
5716 5705 5685 5671 5667 5657 5653 5660 5673 5668 5670 5672 5675 5677 5679 5680 5682 5683 5683 5685 5686 5687 5686 5684 5683 5682 5681 5680 5679 5677 5675 5673 5670 5667 5665 5661 5658 5655 5653 5652 5652 5653 5655 5657 5659 5662 5665 5666 5667
5717 5707 5687 5675 5670 5658 5651 5651 5668 5665 5663 5663 5663 5666 5666 5666 5667 5667 5668 5670 5671 5671 5670 5670 5669 5669 5669 5670 5670 5670 5669 5667 5664 5662 5660 5656 5653 5650 5647 5645 5645 5646 5647 5649 5651 5653 5655 5656 5657